Time,TemperatureF,DewpointF,PressureIn,WindDirection,WindDirectionDegrees,WindSpeedMPH,WindSpeedGustMPH,Humidity,HourlyPrecipIn,Conditions,Clouds,dailyrainin,SoftwareType,DateUTC
2013-01-30 00:02:00,7.0,4.0,-100.00,NNW,333,12.0,16.0,84,0.00,,,-99.99,,2013-01-30 07:02:00,
2013-01-30 00:11:00,8.0,4.0,-100.00,NNW,330,13.0,16.0,84,0.00,,,-99.99,,2013-01-30 07:11:00,
2013-01-30 00:21:00,8.0,4.0,-100.00,NNW,328,14.0,17.0,83,0.00,,,-99.99,,2013-01-30 07:21:00,
2013-01-30 00:32:00,9.0,4.0,-100.00,NW,319,18.0,22.0,83,0.00,,,-99.99,,2013-01-30 07:32:00,
2013-01-30 00:41:00,8.0,4.0,-100.00,NW,320,17.0,19.0,81,0.00,,,-99.99,,2013-01-30 07:41:00,
2013-01-30 00:52:00,9.0,3.0,-100.00,NNW,328,23.0,29.0,79,0.00,,,-99.99,,2013-01-30 07:52:00,
2013-01-30 01:01:00,8.0,3.0,-100.00,NNW,328,24.0,30.0,79,0.00,,,-99.99,,2013-01-30 08:01:00,
2013-01-30 01:11:00,8.0,3.0,-100.00,NNW,330,24.0,29.0,79,0.00,,,-99.99,,2013-01-30 08:11:00,
2013-01-30 01:21:00,8.0,3.0,-100.00,NNW,328,17.0,20.0,81,0.00,,,-99.99,,2013-01-30 08:21:00,
2013-01-30 01:32:00,8.0,3.0,-100.00,NNW,329,20.0,26.0,82,0.00,,,-99.99,,2013-01-30 08:32:00,
2013-01-30 01:42:00,8.0,2.0,-100.00,NNW,332,18.0,21.0,79,0.00,,,-99.99,,2013-01-30 08:42:00,
2013-01-30 01:52:00,7.0,2.0,-100.00,NNW,340,12.0,17.0,77,0.00,,,-99.99,,2013-01-30 08:52:00,
2013-01-30 02:01:00,7.0,1.0,-100.00,NNW,340,16.0,18.0,76,0.00,,,-99.99,,2013-01-30 09:01:00,
2013-01-30 02:11:00,7.0,1.0,-100.00,NNW,340,14.0,16.0,77,0.00,,,-99.99,,2013-01-30 09:11:00,
2013-01-30 02:21:00,7.0,1.0,-100.00,NNW,342,14.0,17.0,77,0.00,,,-99.99,,2013-01-30 09:21:00,
2013-01-30 02:32:00,7.0,1.0,-100.00,NNW,339,11.0,13.0,78,0.00,,,-99.99,,2013-01-30 09:32:00,
2013-01-30 02:41:00,7.0,1.0,-100.00,NNW,339,11.0,15.0,77,0.00,,,-99.99,,2013-01-30 09:41:00,
2013-01-30 02:51:00,6.0,1.0,-100.00,NW,326,11.0,14.0,78,0.00,,,-99.99,,2013-01-30 09:51:00,
2013-01-30 03:01:00,6.0,1.0,-100.00,NW,325,10.0,12.0,77,0.00,,,-99.99,,2013-01-30 10:01:00,
2013-01-30 03:11:00,6.0,0.0,-100.00,NW,320,10.0,11.0,77,0.00,,,-99.99,,2013-01-30 10:11:00,
2013-01-30 03:21:00,6.0,0.0,-100.00,NW,315,10.0,12.0,78,0.00,,,-99.99,,2013-01-30 10:21:00,
2013-01-30 03:32:00,7.0,0.0,-100.00,NW,316,12.0,15.0,74,0.00,,,-99.99,,2013-01-30 10:32:00,
2013-01-30 03:41:00,7.0,-1.0,-100.00,NW,318,18.0,21.0,70,0.00,,,-99.99,,2013-01-30 10:41:00,
2013-01-30 03:52:00,7.0,-1.0,-100.00,NW,316,17.0,20.0,70,0.00,,,-99.99,,2013-01-30 10:52:00,
2013-01-30 07:52:00,32.0,32.0,-100.00,North,0,0.0,0.0,0,0.00,,,-99.99,,2013-01-30 14:52:00,
2013-01-30 08:03:00,13.0,5.0,-100.00,NW,308,37.0,44.0,68,0.00,,,-99.99,,2013-01-30 15:03:00,
2013-01-30 08:12:00,14.0,5.0,-100.00,NW,308,37.0,44.0,67,0.00,,,-99.99,,2013-01-30 15:12:00,
2013-01-30 08:23:00,15.0,6.0,-100.00,NW,308,40.0,49.0,66,0.00,,,-99.99,,2013-01-30 15:23:00,
2013-01-30 08:33:00,15.0,6.0,-100.00,NW,309,38.0,45.0,66,0.00,,,-99.99,,2013-01-30 15:33:00,
2013-01-30 08:43:00,16.0,7.0,-100.00,NW,308,34.0,40.0,67,0.00,,,-99.99,,2013-01-30 15:43:00,
2013-01-30 08:52:00,17.0,8.0,-100.00,NW,308,35.0,41.0,66,0.00,,,-99.99,,2013-01-30 15:52:00,
2013-01-30 09:03:00,17.0,7.0,-100.00,NW,309,40.0,47.0,64,0.00,,,-99.99,,2013-01-30 16:03:00,
2013-01-30 09:12:00,17.0,7.0,-100.00,NW,309,40.0,46.0,63,0.00,,,-99.99,,2013-01-30 16:12:00,
2013-01-30 09:23:00,17.0,6.0,-100.00,NW,313,32.0,40.0,61,0.00,,,-99.99,,2013-01-30 16:23:00,
2013-01-30 09:32:00,18.0,7.0,-100.00,NW,312,30.0,35.0,62,0.00,,,-99.99,,2013-01-30 16:32:00,
2013-01-30 09:42:00,18.0,7.0,-100.00,NW,312,25.0,30.0,62,0.00,,,-99.99,,2013-01-30 16:42:00,
2013-01-30 09:52:00,18.0,8.0,-100.00,NW,312,26.0,30.0,63,0.00,,,-99.99,,2013-01-30 16:52:00,
2013-01-30 10:02:00,16.0,12.0,-100.00,NW,308,24.0,31.0,82,0.01,,,-99.99,,2013-01-30 17:02:00,
2013-01-30 10:12:00,16.0,12.0,-100.00,NW,309,29.0,35.0,85,0.01,,,-99.99,,2013-01-30 17:12:00,
2013-01-30 10:22:00,16.0,13.0,-100.00,NW,306,28.0,32.0,90,0.03,,,-99.99,,2013-01-30 17:22:00,
2013-01-30 10:32:00,16.0,15.0,-100.00,NW,309,26.0,32.0,92,0.03,,,-99.99,,2013-01-30 17:32:00,
2013-01-30 10:42:00,17.0,15.0,-100.00,NW,311,23.0,29.0,93,0.03,,,-99.99,,2013-01-30 17:42:00,
2013-01-30 10:53:00,18.0,14.0,-100.00,NW,313,26.0,31.0,86,0.00,,,-99.99,,2013-01-30 17:53:00,
2013-01-30 11:02:00,18.0,15.0,-100.00,NW,316,28.0,33.0,90,0.01,,,-99.99,,2013-01-30 18:02:00,
2013-01-30 11:12:00,17.0,15.0,-100.00,NW,318,24.0,28.0,91,0.04,,,-99.99,,2013-01-30 18:12:00,
2013-01-30 11:22:00,18.0,16.0,-100.00,NW,320,27.0,35.0,91,0.01,,,-99.99,,2013-01-30 18:22:00,
2013-01-30 11:33:00,19.0,16.0,-100.00,NW,320,28.0,32.0,87,0.00,,,-99.99,,2013-01-30 18:33:00,
2013-01-30 11:42:00,19.0,17.0,-100.00,NW,320,30.0,40.0,89,0.00,,,-99.99,,2013-01-30 18:42:00,
2013-01-30 11:52:00,19.0,17.0,-100.00,NW,322,27.0,32.0,90,0.00,,,-99.99,,2013-01-30 18:52:00,
2013-01-30 12:02:00,19.0,17.0,-100.00,NW,326,28.0,32.0,88,0.01,,,-99.99,,2013-01-30 19:02:00,
2013-01-30 12:12:00,20.0,17.0,-100.00,NNW,328,26.0,32.0,89,0.01,,,-99.99,,2013-01-30 19:12:00,
2013-01-30 12:22:00,19.0,17.0,-100.00,NNW,328,27.0,34.0,88,0.01,,,-99.99,,2013-01-30 19:22:00,
2013-01-30 12:32:00,20.0,16.0,-100.00,NW,325,26.0,36.0,87,0.01,,,-99.99,,2013-01-30 19:32:00,
2013-01-30 12:42:00,19.0,17.0,-100.00,NW,326,26.0,31.0,88,0.04,,,-99.99,,2013-01-30 19:42:00,
2013-01-30 12:52:00,20.0,17.0,-100.00,NW,320,23.0,29.0,88,0.00,,,-99.99,,2013-01-30 19:52:00,
2013-01-30 13:03:00,20.0,18.0,-100.00,NW,322,22.0,26.0,90,0.03,,,-99.99,,2013-01-30 20:03:00,
2013-01-30 13:12:00,20.0,16.0,-100.00,NW,322,27.0,30.0,83,0.00,,,-99.99,,2013-01-30 20:12:00,
2013-01-30 13:22:00,22.0,16.0,-100.00,NW,319,22.0,26.0,79,0.00,,,-99.99,,2013-01-30 20:22:00,
2013-01-30 13:33:00,23.0,14.0,-100.00,NNW,335,27.0,32.0,70,0.00,,,-99.99,,2013-01-30 20:33:00,
2013-01-30 13:42:00,24.0,16.0,-100.00,NNW,329,26.0,30.0,70,0.00,,,-99.99,,2013-01-30 20:42:00,
2013-01-30 13:52:00,24.0,15.0,-100.00,NW,325,29.0,36.0,68,0.00,,,-99.99,,2013-01-30 20:52:00,
2013-01-30 14:03:00,23.0,15.0,-100.00,NNW,332,31.0,35.0,71,0.00,,,-99.99,,2013-01-30 21:03:00,
2013-01-30 14:12:00,23.0,16.0,-100.00,NNW,332,32.0,38.0,71,0.01,,,-99.99,,2013-01-30 21:12:00,
2013-01-30 14:22:00,22.0,17.0,-100.00,NNW,336,26.0,33.0,81,0.00,,,-99.99,,2013-01-30 21:22:00,
2013-01-30 14:32:00,23.0,16.0,-100.00,NNW,336,25.0,34.0,75,0.00,,,-99.99,,2013-01-30 21:32:00,
2013-01-30 14:42:00,22.0,16.0,-100.00,NNW,336,29.0,34.0,77,0.00,,,-99.99,,2013-01-30 21:42:00,
2013-01-30 14:52:00,23.0,17.0,-100.00,NNW,332,31.0,37.0,79,0.01,,,-99.99,,2013-01-30 21:52:00,
2013-01-30 15:03:00,24.0,16.0,-100.00,NNW,340,26.0,29.0,71,0.00,,,-99.99,,2013-01-30 22:03:00,
2013-01-30 15:12:00,25.0,15.0,-100.00,NNW,335,26.0,32.0,66,0.00,,,-99.99,,2013-01-30 22:12:00,
2013-01-30 15:22:00,26.0,14.0,-100.00,NW,325,26.0,32.0,61,0.00,,,-99.99,,2013-01-30 22:22:00,
2013-01-30 15:32:00,25.0,15.0,-100.00,NW,320,24.0,29.0,66,0.00,,,-99.99,,2013-01-30 22:32:00,
2013-01-30 15:42:00,26.0,15.0,-100.00,NW,325,24.0,30.0,65,0.00,,,-99.99,,2013-01-30 22:42:00,
2013-01-30 15:52:00,26.0,15.0,-100.00,NW,322,29.0,32.0,63,0.00,,,-99.99,,2013-01-30 22:52:00,
2013-01-30 16:02:00,26.0,15.0,-100.00,NW,318,22.0,27.0,63,0.00,,,-99.99,,2013-01-30 23:02:00,
2013-01-30 16:12:00,26.0,15.0,-100.00,NW,323,26.0,30.0,61,0.00,,,-99.99,,2013-01-30 23:12:00,
2013-01-30 16:22:00,26.0,16.0,-100.00,NW,319,22.0,25.0,66,0.00,,,-99.99,,2013-01-30 23:22:00,
2013-01-30 16:32:00,25.0,17.0,-100.00,NW,320,25.0,30.0,72,0.00,,,-99.99,,2013-01-30 23:32:00,
2013-01-30 16:42:00,25.0,18.0,-100.00,NW,316,22.0,25.0,74,0.00,,,-99.99,,2013-01-30 23:42:00,
2013-01-30 16:52:00,25.0,18.0,-100.00,NW,318,26.0,30.0,74,0.00,,,-99.99,,2013-01-30 23:52:00,
2013-01-30 17:02:00,25.0,18.0,-100.00,NW,318,24.0,28.0,76,0.00,,,-99.99,,2013-01-31 00:02:00,
2013-01-30 17:11:00,24.0,18.0,-100.00,NW,316,27.0,32.0,77,0.00,,,-99.99,,2013-01-31 00:11:00,
2013-01-30 17:21:00,24.0,18.0,-100.00,NW,315,26.0,29.0,77,0.00,,,-99.99,,2013-01-31 00:21:00,
2013-01-30 17:32:00,24.0,18.0,-100.00,NW,319,26.0,31.0,77,0.00,,,-99.99,,2013-01-31 00:32:00,
2013-01-30 17:42:00,24.0,17.0,-100.00,NW,315,27.0,37.0,75,0.00,,,-99.99,,2013-01-31 00:42:00,
2013-01-30 17:52:00,24.0,18.0,-100.00,NW,312,26.0,33.0,77,0.00,,,-99.99,,2013-01-31 00:52:00,
2013-01-30 18:02:00,23.0,18.0,-100.00,NW,316,30.0,37.0,80,0.00,,,-99.99,,2013-01-31 01:02:00,
2013-01-30 18:11:00,23.0,18.0,-100.00,NW,318,26.0,30.0,81,0.00,,,-99.99,,2013-01-31 01:11:00,
2013-01-30 18:21:00,23.0,18.0,-100.00,NW,315,27.0,33.0,82,0.00,,,-99.99,,2013-01-31 01:21:00,
2013-01-30 18:31:00,23.0,18.0,-100.00,NW,316,27.0,34.0,82,0.00,,,-99.99,,2013-01-31 01:31:00,
2013-01-30 18:41:00,23.0,18.0,-100.00,NW,313,24.0,29.0,83,0.00,,,-99.99,,2013-01-31 01:41:00,
2013-01-30 18:52:00,23.0,18.0,-100.00,NW,313,27.0,34.0,82,0.00,,,-99.99,,2013-01-31 01:52:00,
2013-01-30 19:01:00,24.0,19.0,-100.00,NW,315,27.0,32.0,81,0.00,,,-99.99,,2013-01-31 02:01:00,
2013-01-30 19:11:00,23.0,18.0,-100.00,NW,315,23.0,26.0,82,0.00,,,-99.99,,2013-01-31 02:11:00,
2013-01-30 19:21:00,23.0,19.0,-100.00,NW,312,26.0,32.0,82,0.00,,,-99.99,,2013-01-31 02:21:00,
2013-01-30 19:32:00,23.0,18.0,-100.00,NW,312,25.0,29.0,82,0.00,,,-99.99,,2013-01-31 02:32:00,
2013-01-30 19:41:00,23.0,18.0,-100.00,NW,312,25.0,29.0,82,0.00,,,-99.99,,2013-01-31 02:41:00,
2013-01-30 19:52:00,23.0,18.0,-100.00,NW,312,25.0,29.0,82,0.00,,,-99.99,,2013-01-31 02:52:00,
2013-01-30 20:03:00,24.0,18.0,-100.00,NW,308,27.0,32.0,80,0.00,,,-99.99,,2013-01-31 03:03:00,
2013-01-30 20:11:00,24.0,19.0,-100.00,NW,309,29.0,34.0,80,0.00,,,-99.99,,2013-01-31 03:11:00,
2013-01-30 20:21:00,24.0,19.0,-100.00,NW,313,30.0,36.0,79,0.00,,,-99.99,,2013-01-31 03:21:00,
2013-01-30 20:32:00,24.0,18.0,-100.00,NW,312,29.0,34.0,78,0.00,,,-99.99,,2013-01-31 03:32:00,
2013-01-30 20:41:00,24.0,18.0,-100.00,NW,312,30.0,34.0,77,0.00,,,-99.99,,2013-01-31 03:41:00,
2013-01-30 20:51:00,24.0,18.0,-100.00,NW,311,29.0,35.0,76,0.00,,,-99.99,,2013-01-31 03:51:00,
2013-01-30 21:02:00,25.0,18.0,-100.00,NW,311,35.0,41.0,75,0.00,,,-99.99,,2013-01-31 04:02:00,
2013-01-30 21:22:00,25.0,18.0,-100.00,NW,311,38.0,43.0,73,0.00,,,-99.99,,2013-01-31 04:22:00,
2013-01-30 21:31:00,25.0,17.0,-100.00,NW,309,37.0,45.0,70,0.00,,,-99.99,,2013-01-31 04:31:00,
2013-01-30 21:41:00,25.0,17.0,-100.00,NW,308,35.0,43.0,72,0.00,,,-99.99,,2013-01-31 04:41:00,
2013-01-30 21:51:00,25.0,17.0,-100.00,NW,312,32.0,39.0,72,0.00,,,-99.99,,2013-01-31 04:51:00,
2013-01-30 22:03:00,25.0,17.0,-100.00,NW,311,37.0,43.0,71,0.00,,,-99.99,,2013-01-31 05:03:00,
2013-01-30 22:11:00,25.0,17.0,-100.00,NW,311,35.0,42.0,71,0.00,,,-99.99,,2013-01-31 05:11:00,
2013-01-30 22:22:00,25.0,17.0,-100.00,NW,315,34.0,40.0,72,0.00,,,-99.99,,2013-01-31 05:22:00,
2013-01-30 22:32:00,25.0,17.0,-100.00,NW,315,34.0,40.0,72,0.00,,,-99.99,,2013-01-31 05:32:00,
2013-01-30 22:41:00,25.0,17.0,-100.00,NW,315,33.0,39.0,70,0.00,,,-99.99,,2013-01-31 05:41:00,
2013-01-30 22:51:00,25.0,17.0,-100.00,NW,315,33.0,39.0,70,0.00,,,-99.99,,2013-01-31 05:51:00,
2013-01-30 23:01:00,25.0,17.0,-100.00,NW,315,33.0,39.0,70,0.00,,,-99.99,,2013-01-31 06:01:00,
2013-01-30 23:10:00,25.0,17.0,-100.00,NW,315,33.0,39.0,70,0.00,,,-99.99,,2013-01-31 06:10:00,